GSAT0216 (GALILEO 20)

Last updated on Fri Sep 04 2026 00:02:48 GMT+0000 (Coordinated Universal Time)

1 43056U 17079B 26245.14875207 .00000054 00000+0 00000+0 0 9992 2 43056 55.0573 219.3894 0004762 285.6989 74.2224 1.70473993 54314
UTC large
Height (km)
Speed (km/s)
/
Latitude / Longitude
Inclination (degrees)
Orbital Period (minutes)
Azimuth
Elevation
Range (km)
Doppler Factor

Next 0 passes for location: London (51.5072 / 0.1276)

No passes found over London.
GSAT0216 (GALILEO 20)